HISPASAT 30W-6 (43228 NORAD) Tracking and Keplerian Element Data

This shows tracking and keplerian element data for the satellite.

Feedback or suggestion? Click here.




ElementValue
Catalog43228
NameHISPASAT 30W-6
Epoch Orbit2154
Epoch Day12.47764057
Epoch Year2024
RAAN42.0463
Inclination0.04
Eccentricity0.0003681
Argument of Perigee275.8974
Mean Anonmoly295.4744
Mean Motion1.00270701
Decay Rate-2.05E-06
L11 43228U 18023A 24012.47764057 -.00000205 00000+0 00000+0 0 9998
L22 43228 0.0400 42.0463 0003681 275.8974 295.4744 1.00270701 21549



Live tracking and technical data element details for HISPASAT 30W-6 (NORAD 43228). HISPASAT 30W-6 can be tracked NOW for your location showing map with azimuth and elevation plus other details from your city location.







IsCatalogInMostPopularTable: catalog: 43228, numindb: 1009
Update: records affected: 1



GetName: 43228 HISPASAT 30W-6

Hit Count: updated at: Fri, 19 Apr 2024 11:53:54 GMT